Location: Butler
(32.5575°N, 84.2380°W)
Time: 15:48:54
(UTC+00:00)

ISS - Visible Passes

Search period start: 02 December 2021 00:00
Search period end: 12 December 2021 00:00
Orbit: 417 x 423 km, 51.6° (Epoch: 02 December)

Date Brightness Start Highest point End Pass type
(mag) Time Alt. Az. Time Alt. Az. Time Alt. Az.
06 Dec -1.9 00:04:05 10° NNW 00:05:33 20° N 00:05:33 20° N visible
06 Dec -2.2 23:17:17 10° NNW 23:19:48 19° NE 23:21:06 16° ENE visible
07 Dec -0.7 00:53:34 10° WNW 00:54:09 14° WNW 00:54:09 14° WNW visible
08 Dec -3.6 00:06:10 10° NW 00:09:32 72° SW 00:10:05 57° SSE visible
08 Dec -3.7 23:18:58 10° NW 23:22:19 58° NE 23:25:39 10° ESE visible
10 Dec -0.8 00:09:14 10° W 00:11:39 18° SW 00:14:03 10° S visible
10 Dec -1.9 23:21:25 10° WNW 23:24:31 34° SW 23:27:37 10° SSE visible
